Roseburg, OR

7:35 AM PST on February 20, 2017 (GMT -0800)
Roseburg Regional

Weather History for KRBG - March, 2012

Change the Weather History Date:

Thursday, March 29, 2012

  Actual Average Record
Temperature  
Mean Temperature 55 °F 50 °F  
Max Temperature 60 °F 59 °F 80 °F (2004)
Min Temperature 50 °F 40 °F 30 °F (2008)
Degree Days  
Heating Degree Days 10 15  
Month to date heating degree days 552 480  
Since 1 July heating degree days 3495 3349  
Cooling Degree Days 0 0  
Month to date cooling degree days 0 0  
Year to date cooling degree days 0 0  
Growing Degree Days 4 (Base 50)    
Moisture  
Dew Point 43 °F    
Average Humidity 72    
Maximum Humidity 96    
Minimum Humidity 47    
Precipitation  
Precipitation 0.68 in 0.13 in 1.40 in (2005)
Month to date precipitation 7.08 3.26  
Year to date precipitation 15.57 12.30  
Sea Level Pressure  
Sea Level Pressure 29.74 in    
Wind  
Wind Speed 10 mph (South)    
Max Wind Speed 23 mph    
Max Gust Speed 35 mph    
Visibility 9 miles    
Events Rain    
T = Trace of Precipitation, MM = Missing Value Source: NWS Daily Summary

Daily Weather History Graph

Daily Weather History Graph

Search for Another Location

Airport or City:

Trip Planner

Search our weather history database for the weather conditions in past years. The results will help you decide how hot, cold, wet, or windy it might be!

Date:

Astronomy

Mar. 29, 2012 Rise Set
Actual Time 6:59 AM PDT 7:37 PM PDT
Civil Twilight 6:30 AM PDT 8:05 PM PDT
Nautical Twilight 5:57 AM PDT 8:39 PM PDT
Astronomical Twilight 5:21 AM PDT 9:15 PM PDT
Moon 11:05 AM PDT (3/29) 1:41 AM PDT (3/29)
Length of Visible Light 13h 34m
Length of Day
12h 37m
Waxing Crescent, 40% of the Moon is Illuminated
Mar 29
Waxing Crescent
Mar 30
First Quarter
Apr 6
Full
Apr 13
Last Quarter
Apr 21
New

Hourly Weather History & Observations

Time (PDT) Temp. Dew Point Humidity Pressure Visibility Wind Dir Wind Speed Gust Speed Precip Events Conditions
12:53 AM 51.1 °F 37.0 °F 59% 29.87 in 10.0 mi SSE 13.8 mph 20.7 mph 0.00 in Rain Light Rain
1:53 AM 50.0 °F 37.9 °F 63% 29.84 in 10.0 mi South 5.8 mph 17.3 mph 0.00 in   Mostly Cloudy
2:53 AM 50.0 °F 37.9 °F 63% 29.83 in 10.0 mi Variable 4.6 mph - N/A   Overcast
3:53 AM 51.1 °F 37.9 °F 61% 29.82 in 10.0 mi Variable 5.8 mph - N/A   Overcast
4:53 AM 52.0 °F 39.0 °F 61% 29.82 in 10.0 mi South 5.8 mph - N/A   Overcast
5:53 AM 52.0 °F 37.9 °F 59% 29.81 in 10.0 mi SSE 10.4 mph - N/A   Overcast
6:53 AM 52.0 °F 37.9 °F 59% 29.81 in 10.0 mi SSE 9.2 mph 19.6 mph N/A   Overcast
7:53 AM 53.1 °F 37.9 °F 57% 29.80 in 10.0 mi South 12.7 mph 21.9 mph N/A   Overcast
8:53 AM 53.1 °F 39.0 °F 59% 29.79 in 10.0 mi South 16.1 mph 26.5 mph N/A   Overcast
9:53 AM 55.0 °F 39.0 °F 55% 29.75 in 10.0 mi SSE 19.6 mph 28.8 mph N/A   Partly Cloudy
10:53 AM 57.9 °F 39.9 °F 51% 29.73 in 10.0 mi South 17.3 mph 29.9 mph N/A   Mostly Cloudy
11:53 AM 59.0 °F 39.9 °F 49% 29.71 in 10.0 mi South 19.6 mph 33.4 mph N/A   Scattered Clouds
12:53 PM 57.9 °F 42.1 °F 56% 29.70 in 10.0 mi South 15.0 mph 27.6 mph 0.00 in Rain Light Rain
1:53 PM 57.9 °F 42.1 °F 56% 29.69 in 10.0 mi South 18.4 mph 32.2 mph 0.00 in Rain Light Rain
2:53 PM 57.0 °F 45.0 °F 64% 29.69 in 10.0 mi South 12.7 mph 25.3 mph 0.00 in Rain Light Rain
3:53 PM 55.9 °F 46.9 °F 72% 29.69 in 10.0 mi South 12.7 mph 20.7 mph 0.01 in Rain Light Rain
4:53 PM 55.9 °F 46.9 °F 72% 29.68 in 10.0 mi South 6.9 mph 19.6 mph 0.01 in Rain Light Rain
5:53 PM 55.0 °F 48.9 °F 80% 29.70 in 7.0 mi South 6.9 mph - 0.03 in Rain Light Rain
6:53 PM 54.0 °F 48.9 °F 83% 29.69 in 6.0 mi South 8.1 mph - 0.05 in Rain Light Rain
7:53 PM 53.1 °F 48.9 °F 86% 29.69 in 4.0 mi Calm Calm - 0.09 in Rain Rain
8:53 PM 52.0 °F 50.0 °F 93% 29.68 in 4.0 mi South 4.6 mph - 0.15 in Rain Rain
9:53 PM 52.0 °F 50.0 °F 93% 29.70 in 5.0 mi SSE 6.9 mph - 0.14 in Rain Rain
10:53 PM 53.1 °F 50.0 °F 89% 29.69 in 6.0 mi South 6.9 mph - 0.16 in Rain Rain
11:53 PM 55.0 °F 48.9 °F 80% 29.68 in 10.0 mi SSW 9.2 mph 19.6 mph 0.03 in   Mostly Cloudy